Hourly Data Report for October 31, 2015

All times are specified in Local Standard Time (LST). Add 1 hour to adjust for Daylight Saving Time where and when it is observed.

CLYDE RIVER A
NUNAVUT

70°29'09.000" N
68°31'01.000" W
26.50 m
2400804
71090
YCY

Download Data

Hourly Data (October 2015)
Hourly Data Report for October 31, 2015
Temp Definition
°C
Dew Point Temp Definition
°C
Rel Hum Definition
%
Wind Dir Definition
10's deg

Wind Spd Definition
km/h
Visibility Definition
km
Stn Press Definition
kPa
Hmdx Definition


Wind Chill Definition


Weather Definition


TIME
00:00 Legend Double Dagger -13.4 -17.2 73 30 28 16.1 99.85   -24 LegendNANA
01:00 Legend Double Dagger -15.8 -19.3 75 29 28 16.1 99.86   -27 LegendNANA
02:00 Legend Double Dagger -16.8 -20.1 76 28 28 16.1 99.86   -28 LegendNANA
03:00 Legend Double Dagger -16.8 -20.1 76 29 30 16.1 99.85   -28 LegendNANA
04:00 Legend Double Dagger -16.4 -19.5 77 29 34 16.1 99.86   -28 LegendNANA
05:00 Legend Double Dagger -15.5 -18.9 76 29 35 16.1 99.86   -27 LegendNANA
06:00 Legend Double Dagger -15.2 -18.9 74 29 34 16.1 99.89   -27 LegendNANA
07:00 Legend Double Dagger -12.3 -15.9 75 30 34 16.1 99.88   -23 LegendNANA
08:00 Legend Double Dagger -12.5 -15.7 77 29 24 16.1 99.93   -22 LegendNANA
09:00 Legend Double Dagger -12.5 -15.6 78 30 21 16.1 99.95   -21 LegendNANA
10:00 Legend Double Dagger -12.0 -15.4 76 29 22 16.1 99.97   -21 Snow
11:00 Legend Double Dagger -10.9 -14.6 74 29 24 16.1 99.98   -20 LegendNANA
12:00 Legend Double Dagger -11.7 -14.4 81 30 21 16.1 100.04   -20 LegendNANA
13:00 Legend Double Dagger -11.7 -14.3 81 30 11 16.1 100.09   -18 Snow
14:00 Legend Double Dagger -11.7 -14.9 77 30 17 16.1 100.13   -19 Snow
15:00 Legend Double Dagger -11.7 -14.8 78 29 17 16.1 100.18   -19 LegendNANA
16:00 Legend Double Dagger -12.0 -14.8 80 30 17 16.1 100.21   -20 Snow
17:00 Legend Double Dagger -12.1 -15.0 79 31 15 16.1 100.25   -19 LegendNANA
18:00 Legend Double Dagger -12.2 -15.1 79 32 13 16.1 100.29   -19 LegendNANA
19:00 Legend Double Dagger -12.9 -16.0 78 30 21 16.1 100.34   -22 LegendNANA
20:00 Legend Double Dagger -12.8 -16.0 77 29 22 16.1 100.38   -22 LegendNANA
21:00 Legend Double Dagger -13.1 -16.2 78 29 22 16.1 100.40   -22 LegendNANA
22:00 Legend Double Dagger -14.1 -17.0 79 30 28 16.1 100.42   -25 LegendNANA
23:00 Legend Double Dagger -15.0 -17.9 79 31 26 16.1 100.44   -25 LegendNANA

Notes on Data Quality.

Legend

  • E = Estimated
  • M = Missing
  • NA = Not Available
  • ‡ = Partner data that is not subject to review by the National Climate Archives
Date modified: